Погода Тарту

Погода Тарту : погода сейчас, прогноз погоды и архив. Всё, что Вы хотите узнать о погоде Тарту!

Поиск расширенной информации на нашем сайте:

Другие новости

Новости СМИ2

Главная страница сайта

Новости сайта

03.07.2017

Напоминаем, что на нашем специализированном сайте Метеоцентр.Азия вы можете получить высокодетализированные автоматические прогнозы погоды по пунктам России, СНГ и мира в авиационном формате (включающие направление и скорость ветра, видимость, явления погоды, количество и форму облачности, нижнюю и верхнюю границу облачности).


Погода Тарту - сегодня

Время (UTC), дата Ветер
(°,м/с) 
Видим.   Явления Облачность Т
(°С)
Тd
(°С)
f(%) Тe
(°С)
Pmin
(гПа)
dP
(гПа)
Po
(мм)
O2
(г/м3)
Тmin Tmax R s Состояние
почвы
03 21.09.18 200 (Ю) 20000 м    10/10 400 м 
[St]
+15.4 +13.6 89 +22  1013.5  0.5  754  285  +14.2  +21.9       
06 21.09.18 200 (Ю) 20000 м    10/10 300 м 
[St]
+16 +14.1 88 +24  1013.8  0.3  754  284  +14.2  +18       
09 21.09.18 220 (ЮЗ) 20000 м    5/1 средняя, верхняя 
[Ac trans|Ci fib]
+20 +14.7 72 +28  1013.5  -0.3  754  280  +14.2  +20       
12 21.09.18 170 (Ю) 20000 м    6/1 верхняя 
[Cc]
+24.1 +14.3 54 +32  1011.4  -2.1  752  276  +14.2  +24.2       
15 21.09.18 170 (Ю) 20000 м    3/0 верхняя 
[Ci fib]
+23.8 +14.8 57 +32  1009.1  -2.3  751  275  +15.3  +24.7       
18 21.09.18 160 (Ю) 20000 м    1/0 верхняя 
[Ci fib]
+21.9 +15 65 +31  1007.4  -1.7  749  276  +16  +24.7       
21 21.09.18 170 (Ю) 4{09}  20000 м    3/0 верхняя 
[Ci fib]
+20.9 +14 65 +28  1005.1  -2.3  748  277  +20  +24.7       
00 22.09.18 160 (Ю) 4{08}  20000 м    4/1 средняя, верхняя 
[Ac trans|Ci fib]
+18.6 +12.1 66 +23  1001.9  -3.2  745  279  +18.6  +24.7       
03 22.09.18 180 (Ю) 4{10}  20000 м    8/6 2000 м средняя, верхняя 
[Ac As|Ci fib]
+18.3 +12.2 68 +23  1000.4  -1.5  744  279  +18.2  +23.8       
06 22.09.18 220 (ЮЗ) 3{14}  20000 м  ливневой дождь  10/10 700 м кучево-дожд. 
[Cb cap]
+12.8 +10.7 87 +15  1002.9  2.5  746  285  +12.8  +22  0.4     
09 22.09.18 210 (ЮЗ) 4{09}  20000 м  {ливн. осадки}  10/6 300 м средняя 
[St|As trans]
+12.5 +10.7 89 +14  1003.8  0.9  747  286  +11.6  +20.9     
12 22.09.18 200 (Ю) 4{10}  20000 м  {ливн. осадки}  10/9 720 м средняя 
[Sc|As trans]
+13.8 +9.7 76 +14  1004.3  0.5  747  285  +11.6  +19       
15 22.09.18 230 (ЮЗ) 2{11}  20000 м  слаб. ливневой дождь  9/8 930 м кучево-дожд., верхняя 
[Cb cap|Ci ing]
+13.8 +9.1 73 +14  1003.9  -0.4  747  285  +11.6  +18.6       
18 22.09.18 210 (ЮЗ) 20000 м  {ливн. осадки}  9/1 1170 м верхняя 
[Sc diur, vesp|Ci fib]
+10.9 +7.6 80 +11  1004.9  747  288  +10.9  +15.4       
21 22.09.18 200 (Ю) 20000 м    9/0 верхняя 
[Cs]
+10 +6.8 80 +10  1004.5  -0.4  747  289  +9.9  +15.4       
00 23.09.18 190 (Ю) 20000 м  {ливн. осадки}  9/0 средняя, верхняя 
[Ac trans|Ci fib]
+9 +6.6 85 +8  1003.4  -1.1  746  290  +8.8  +15.4       
03 23.09.18 200 (Ю) 20000 м    8/1 700 м верхняя 
[Sc|Ci fib]
+8.5 +6.9 90 +8  1002.4  -1  745  290  +8.4  +13.8       
06 23.09.18 200 (Ю) 5-9{09}  20000 м    5/4 400 м кучево-дожд., верхняя 
[Cb calv|Ci ing]
+9.5 +6.7 83 +8  1001.3  -1.1  745  289  +8  +11.1       
09 23.09.18 210 (ЮЗ) 4{10}  20000 м  в посл. час ливневой дождь  6/5 720 м кучево-дожд., верхняя 
[Cb calv|Ci fib]
+11.7 +7.3 74 +11  1001  -0.3  745  286  +8  +12.1       
12 23.09.18 220 (ЮЗ) 3{09}  20000 м  {ливн. осадки}  4/3 930 м кучево-дожд., средняя, верхняя 
[Cb calv|Ac trans|Ci fib]
+11 +7.5 79 +11  1001.8  0.8  745  287  +7.8  +12.1     
15 23.09.18 210 (ЮЗ) 2{09}  20000 м  ливневой дождь  9/8 800 м кучево-дожд., средняя 
[Cb calv|Ac trans]
+9.9 +7.7 86 +10  1001.9  0.1  745  288  +7.8  +12.1       
18 23.09.18 250 (З) 11000 м  ливневой дождь  10/8 870 м кучево-дожд., средняя 
[Cb cap|Ac trans]
+8.9 +7.9 93 +9  1002.2  0.3  745  289  +7.8  +12.1     
21 23.09.18 210 (ЮЗ) 20000 м  в посл. час ливневой дождь  8/5 1350 м кучево-дожд., средняя 
[Cb calv|Ac trans]
+7.8 +7.1 95 +8  1002  -0.2  745  291  +7.8  +12  0.8     
00 24.09.18 210 (ЮЗ) 20000 м  в посл. час ливневой дождь  8/5 210 м кучево-дожд., средняя 
[Cb calv|Ac trans]
+7.7 +7.1 96 +8  1001.2  -0.8  745  291  +7.5  +12       
03 24.09.18 220 (ЮЗ) 20000 м  {ливн. осадки}  10/10 270 м кучево-дожд. 
[Cb calv]
+7.2 +6.8 97 +8  1002  0.8  745  291  +7.2  +10       
Время (UTC), дата Ветер
(°,м/с) 
Видим.   Явления Облачность Т
(°С)
Тd
(°С)
f(%) Тe
(°С)
Pmin
(гПа)
dP
(гПа)
Po
(мм)
O2
(г/м3)
Тmin Tmax R s Состояние
почвы

Для получения пояснительной информации подведите курсор к названию столбца.

ПОГОДА Тарту - архив

Всё, что Вы хотите узнать о погоде Тарту - удобно и подробно!

Выберите нужную дату (начиная с 1 января 2015* года) и нажмите кнопку "Найти".
Будут отображены архивные сводки погоды по пункту Тарту, начиная с указанной даты.


Отображать данные в формате CSV (для использования в таблицах Excel)


Внимание! Наш архив погоды предназначен исключительно для личного некоммерческого использования в познавательных целях. Если Вам необходимы официальные справки о состоянии погоды (для производственных, юридических, коммерческих и т.п. целей), обращайтесь в органы Росгидромета.

*Примечание: данная дата относится к архиву по метеостанциям СССР (Россия, СНГ, Балтия).
Архив по метеостанциям Зарубежной Европы и Азии (кроме Китая) хранится 10 дней, по другим регионам земного шара (Китай, Африка, Америка, Австралия, Океания) - 1 день.

Тарту - район местоположения метеостанции


Название, широта, долгота, высота метеостанции:
Тарту 58.3°ш. 26.7°д. 68 м над ур. моря [Эстония]

Дополнительная информация

В oтличие oт бoльшинства пoгoдных сайтoв мы публикуем пoдрoбную метеoинфoрмацию в детальнoм прoфессиoнальнoм фoрмате.

Характеристики температуры и влажнoсти вoздуха измеряются на высoте 2 м в тени вдали oт зданий и деревьев.
Скoрoсть ветра измеряется на высoте 10 м (на урoвне рoста челoвека скoрoсть ветра ниже в 1.5-2 раза). Если метеoстанция нахoдится в гoрoде или в лесу, тo скoрoсть ветра занижена на 2-4 м/с пo сравнению с oткрытым местoм. Скoрoсть ветра над акватoриями крупных рек и oзёр, а также на вершинах хoлмoв на 2-5 м/с выше, чем в oбычных услoвиях.
Атмoсфернoе давление в разных тoчках местнoсти мoжет значительнo oтличаться oт давления на метеoстанции, в зависимoсти oт услoвий рельефа (при пoдъёме на 10 м давление пoнижается примернo на 1 мм рт.ст.).